SP5MRF Weather Reports


Display with metric or nautical units.
time (UTC)temp
F
wind
direction
speed
MPH
gust
MPH
rain 1hr
in
rain 24hr
in
rain mn
in
humidity
%
barometer
mb
20260508062952 51 45 0.0 0.0 0.00 0.00 0.00 80 1013.0
20260508062152 51 22 0.0 0.0 0.00 0.00 0.00 80 1013.0
20260508061352 50 0 0.0 0.0 0.00 0.00 0.00 81 1013.0
20260508060552 50 22 0.0 0.0 0.00 0.00 0.00 80 1012.9
20260508055752 50 22 0.0 0.0 0.00 0.00 0.00 80 1012.8
20260508054952 50 337 0.0 0.0 0.00 0.00 0.00 80 1012.8
20260508054153 50 337 0.0 0.0 0.00 0.00 0.00 80 1012.8
20260508053352 50 337 0.0 0.0 0.00 0.00 0.00 80 1012.7
20260508052552 50 0 0.0 0.0 0.00 0.00 0.00 81 1012.6
20260508051753 50 0 0.0 0.0 0.00 0.00 0.00 81 1012.5
20260508050152 50 22 0.0 0.0 0.00 0.00 0.00 80 1012.4
20260508045353 50 337 0.0 2.0 0.00 0.00 0.00 80 1012.4
20260508044552 50 22 0.0 0.0 0.00 0.00 0.00 80 1012.5
20260508043752 50 22 0.0 0.0 0.00 0.00 0.00 80 1012.4
20260508042953 50 0 0.0 0.0 0.00 0.00 0.00 80 1012.3
20260508042152 50 22 0.0 0.0 0.00 0.00 0.00 80 1012.2
20260508041353 50 22 0.0 0.0 0.00 0.00 0.00 80 1012.0
20260508040554 50 45 0.0 2.0 0.00 0.00 0.00 79 1012.2
20260508035833 50 292 0.0 1.0 0.00 0.00 0.00 79 1012.1
20260508035754 50 292 0.0 1.0 0.00 0.00 0.00 79 1012.1
20260508034952 50 0 0.0 0.0 0.00 0.00 0.00 79 1012.2
20260508034152 50 0 0.0 0.0 0.00 0.00 0.00 79 1012.1
20260508033352 50 0 0.0 0.0 0.00 0.00 0.00 79 1012.1
20260508032552 50 0 0.0 0.0 0.00 0.00 0.00 79 1012.1
20260508031752 50 22 0.0 0.0 0.00 0.00 0.00 79 1012.0
20260508030952 50 22 0.0 0.0 0.00 0.00 0.00 78 1012.1
20260508030152 50 22 0.0 0.0 0.00 0.00 0.00 78 1011.8
20260508025355 50 292 0.0 0.0 0.00 0.00 0.00 78 1011.9
20260508024552 50 22 0.0 0.0 0.00 0.00 0.00 78 1011.7
20260508023752 50 22 0.0 0.0 0.00 0.00 0.00 78 1011.8
20260508022952 50 0 0.0 0.0 0.00 0.00 0.00 78 1011.7
20260508022152 50 337 0.0 0.0 0.00 0.00 0.00 78 1011.9
20260508021353 50 22 0.0 0.0 0.00 0.00 0.00 78 1011.7
20260508020552 50 22 0.0 0.0 0.00 0.00 0.00 78 1011.9
20260508015752 50 22 0.0 4.0 0.00 0.00 0.00 77 1011.7
20260508014952 50 337 0.0 0.0 0.00 0.00 0.00 77 1011.8
20260508014154 50 22 0.0 0.0 0.00 0.00 0.00 77 1011.7
20260508013352 50 0 0.0 0.0 0.00 0.00 0.00 77 1011.7
20260508012552 50 22 0.0 0.0 0.00 0.00 0.00 77 1011.5
20260508011752 51 22 0.0 1.0 0.00 0.00 0.00 77 1011.7
20260508010952 51 22 0.0 0.0 0.00 0.00 0.00 77 1011.6
20260508010152 51 22 0.0 1.0 0.00 0.00 0.00 77 1011.6
20260508005352 51 22 0.0 0.0 0.00 0.00 0.00 77 1011.5
20260508004558 51 337 0.0 4.0 0.00 0.00 0.00 77 1011.6
20260508003752 51 45 0.0 1.0 0.00 0.00 0.00 77 1011.3
20260508002952 51 0 1.0 1.0 0.00 0.00 0.00 77 1011.6
20260508002152 51 22 0.0 0.0 0.00 0.00 0.00 76 1011.6
20260507235753 51 22 0.0 0.0 0.00 0.00 0.00 76 1011.5
20260507234952 51 22 1.0 1.0 0.00 0.00 0.00 75 1011.4
20260507234152 52 0 0.0 0.0 0.00 0.00 0.00 75 1011.3
20260507233352 52 22 0.0 0.0 0.00 0.00 0.00 75 1011.4
20260507231752 52 22 0.0 0.0 0.00 0.00 0.00 75 1011.6
20260507230953 52 0 0.0 0.0 0.00 0.00 0.00 75 1011.4
20260507230152 52 22 0.0 0.0 0.00 0.00 0.00 75 1011.4
20260507225353 52 22 0.0 0.0 0.00 0.00 0.00 75 1011.3
20260507224553 52 22 0.0 0.0 0.00 0.00 0.00 75 1011.4
20260507223753 52 0 0.0 0.0 0.00 0.00 0.00 75 1011.2
20260507222954 53 0 0.0 0.0 0.00 0.00 0.00 75 1011.1
20260507222153 53 22 0.0 0.0 0.00 0.00 0.00 75 1011.0
20260507221353 53 22 0.0 0.0 0.00 0.00 0.00 75 1010.9
20260507220553 53 0 0.0 0.0 0.00 0.00 0.00 75 1010.9
20260507215753 53 45 0.0 0.0 0.00 0.00 0.00 75 1010.7
20260507214953 53 67 0.0 0.0 0.00 0.00 0.00 75 1010.7
20260507214153 53 0 0.0 0.0 0.00 0.00 0.00 75 1010.7
20260507213353 53 0 0.0 0.0 0.00 0.00 0.00 74 1010.6
20260507212553 53 22 0.0 4.0 0.00 0.00 0.00 74 1010.6
20260507211753 53 337 0.0 3.0 0.00 0.00 0.00 74 1010.6
20260507210953 53 22 0.0 1.0 0.00 0.00 0.00 74 1010.6
20260507210153 53 0 0.0 0.0 0.00 0.00 0.00 74 1010.5
20260507205353 53 22 0.0 0.0 0.00 0.00 0.00 74 1010.6
20260507204553 54 0 0.0 0.0 0.00 0.00 0.00 74 1010.4
20260507203754 53 0 0.0 0.0 0.00 0.00 0.00 74 1010.4
20260507202953 54 22 0.0 0.0 0.00 0.00 0.00 74 1010.6
20260507202153 54 0 0.0 0.0 0.00 0.00 0.00 74 1010.6
20260507201355 54 337 0.0 0.0 0.00 0.00 0.00 74 1010.6
20260507200553 54 22 0.0 0.0 0.00 0.00 0.00 74 1010.4
20260507195753 54 22 0.0 0.0 0.00 0.00 0.00 74 1010.2
20260507194953 54 0 0.0 0.0 0.00 0.00 0.00 74 1010.3
20260507194154 54 0 0.0 0.0 0.00 0.00 0.00 74 1010.2
20260507193353 54 0 0.0 0.0 0.00 0.00 0.00 74 1010.3
20260507192553 54 337 0.0 0.0 0.00 0.00 0.00 74 1010.3
20260507191753 54 337 0.0 0.0 0.00 0.00 0.00 73 1009.9
20260507190953 55 0 0.0 0.0 0.00 0.00 0.00 74 1010.1
20260507190153 55 0 0.0 0.0 0.00 0.00 0.00 73 1009.9
20260507185355 55 22 0.0 0.0 0.00 0.00 0.00 73 1010.0
20260507184554 55 45 0.0 3.0 0.00 0.00 0.00 73 1009.7
20260507183753 55 0 0.0 4.0 0.00 0.00 0.00 73 1009.8
20260507182953 55 0 0.0 0.0 0.00 0.00 0.00 73 1009.8
20260507182153 55 0 0.0 0.0 0.00 0.00 0.00 73 1009.5
20260507181353 55 0 0.0 0.0 0.00 0.00 0.00 73 1009.6
20260507180553 55 337 0.0 0.0 0.00 0.00 0.00 73 1009.4
20260507175753 56 0 0.0 0.0 0.00 0.00 0.00 73 1009.4
20260507174953 56 22 0.0 0.0 0.00 0.00 0.00 73 1009.0
20260507174154 56 0 0.0 0.0 0.00 0.00 0.00 73 1009.0
20260507173353 56 0 0.0 2.0 0.00 0.00 0.00 73 1008.7
20260507172554 56 337 0.0 2.0 0.00 0.00 0.00 72 1008.6
20260507171753 56 45 0.0 0.0 0.00 0.00 0.00 72 1008.3
20260507170953 57 292 0.0 0.0 0.00 0.00 0.00 71 1008.3
20260507170153 57 22 0.0 1.0 0.00 0.00 0.00 71 1008.3
20260507165353 57 0 0.0 1.0 0.00 0.00 0.00 71 1008.1
20260507164553 58 0 0.0 0.0 0.00 0.00 0.00 70 1008.0
20260507163753 58 337 0.0 0.0 0.00 0.00 0.00 70 1008.3
20260507162953 58 315 0.0 0.0 0.00 0.00 0.00 70 1008.1
20260507162153 58 0 0.0 0.0 0.00 0.00 0.00 70 1008.0
20260507161353 58 0 0.0 0.0 0.00 0.00 0.00 70 1008.1
20260507160553 58 0 0.0 0.0 0.00 0.00 0.00 69 1008.2
20260507155753 59 22 0.0 0.0 0.00 0.00 0.00 69 1008.2
20260507154953 59 22 0.0 0.0 0.00 0.00 0.00 69 1008.3
20260507154154 59 0 0.0 0.0 0.00 0.00 0.00 69 1008.2
20260507153353 59 337 2.0 2.0 0.00 0.00 0.00 69 1008.5
20260507152553 59 22 0.0 1.0 0.00 0.00 0.00 68 1008.3
20260507151753 60 22 0.0 2.0 0.00 0.00 0.00 67 1008.3
20260507150954 60 0 0.0 0.0 0.00 0.00 0.00 67 1008.3
20260507150153 60 292 0.0 0.0 0.00 0.00 0.00 68 1008.3
20260507145353 61 0 0.0 3.0 0.00 0.00 0.00 67 1008.3
20260507144553 61 22 0.0 0.0 0.00 0.00 0.00 68 1008.2
20260507143753 61 315 0.0 0.0 0.00 0.00 0.00 68 1008.2
20260507142953 61 90 0.0 0.0 0.00 0.00 0.00 68 1008.2
20260507142153 61 22 0.0 6.0 0.00 0.00 0.00 68 1007.9
20260507141354 61 0 0.0 4.0 0.00 0.00 0.00 67 1007.9
20260507140553 61 0 0.0 0.0 0.00 0.00 0.00 68 1007.8
20260507135753 61 315 0.0 0.0 0.00 0.00 0.00 68 1007.7
20260507134953 61 45 0.0 4.0 0.00 0.00 0.00 68 1007.7
20260507134154 61 337 0.0 0.0 0.00 0.00 0.00 68 1007.7
20260507133353 61 67 0.0 0.0 0.00 0.00 0.00 68 1007.7
20260507132553 61 292 0.0 1.0 0.00 0.00 0.00 68 1007.8
20260507131755 62 0 0.0 0.0 0.00 0.00 0.00 68 1007.7
20260507130953 62 337 0.0 0.0 0.00 0.00 0.00 68 1007.6
20260507130153 62 292 0.0 0.0 0.00 0.00 0.00 68 1007.6
20260507125355 62 22 0.0 0.0 0.00 0.00 0.00 68 1007.7
20260507124553 63 337 0.0 1.0 0.00 0.00 0.00 67 1007.8
20260507123753 63 337 0.0 0.0 0.00 0.00 0.00 68 1007.6
20260507122953 63 22 4.0 4.0 0.00 0.00 0.00 67 1007.5
20260507122153 64 292 0.0 4.0 0.00 0.00 0.00 68 1007.6
20260507121353 63 337 0.0 1.0 0.00 0.00 0.00 69 1007.5
20260507120553 63 315 0.0 0.0 0.00 0.00 0.00 70 1007.6
20260507115753 63 0 0.0 0.0 0.00 0.00 0.00 71 1007.5
20260507114955 62 337 0.0 0.0 0.00 0.00 0.00 72 1007.6
20260507113355 60 22 0.0 0.0 0.00 0.00 0.00 74 1007.3
20260507112555 59 315 0.0 2.0 0.00 0.00 0.00 75 1007.3
20260507111753 59 315 0.0 0.0 0.00 0.00 0.00 75 1007.1
20260507110955 58 337 0.0 0.0 0.00 0.00 0.00 75 1007.2
20260507110153 58 337 0.0 0.0 0.00 0.00 0.00 75 1007.2
20260507104553 58 292 0.0 0.0 0.00 0.00 0.00 75 1007.1
20260507103753 58 315 0.0 0.0 0.00 0.00 0.00 74 1007.1
20260507102953 58 315 0.0 0.0 0.00 0.00 0.00 74 1007.0
20260507102154 58 315 0.0 0.0 0.00 0.00 0.00 73 1006.7
20260507101354 59 315 0.0 0.0 0.00 0.00 0.00 72 1006.6
20260507100553 60 337 0.0 0.0 0.00 0.00 0.00 72 1006.7
20260507095754 61 315 0.0 0.0 0.00 0.00 0.00 71 1006.4
20260507094953 61 292 0.0 0.0 0.00 0.00 0.00 71 1006.4
20260507094155 61 315 0.0 0.0 0.00 0.00 0.00 71 1006.2
20260507093355 62 337 0.0 4.0 0.00 0.00 0.00 70 1006.3
20260507091754 63 22 0.0 0.0 0.00 0.00 0.00 70 1006.0
20260507090954 63 22 0.0 0.0 0.00 0.00 0.00 70 1006.0
20260507090154 64 22 0.0 0.0 0.00 0.00 0.00 71 1005.7
20260507084554 64 0 0.0 0.0 0.00 0.00 0.00 70 1005.5
20260507083754 64 315 0.0 0.0 0.00 0.00 0.00 70 1005.5
20260507082954 64 337 0.0 0.0 0.00 0.00 0.00 72 1005.3
20260507082154 63 292 0.0 0.0 0.00 0.00 0.00 72 1005.2
20260507081354 63 292 0.0 0.0 0.00 0.00 0.00 72 1005.0
20260507080554 63 315 0.0 0.0 0.00 0.00 0.00 71 1005.2
20260507075754 63 337 0.0 2.0 0.00 0.00 0.00 72 1005.0
20260507074954 63 315 0.0 2.0 0.00 0.00 0.00 71 1005.0
20260507073354 64 0 0.0 4.0 0.00 0.00 0.00 71 1004.6
20260507072554 64 0 0.0 2.0 0.00 0.00 0.00 73 1004.4
20260507071755 63 315 0.0 0.0 0.00 0.00 0.00 73 1004.4
20260507070954 63 292 0.0 0.0 0.00 0.00 0.00 73 1004.3
20260507070154 64 337 0.0 3.0 0.00 0.00 0.00 73 1004.1
20260507065355 63 337 0.0 0.0 0.00 0.00 0.00 75 1004.2
20260507064554 62 315 0.0 0.0 0.00 0.00 0.00 75 1004.1
20260507063756 62 292 0.0 0.0 0.00 0.00 0.00 76 1003.8